Weather History for Monett, MO

Change the Weather History Date:

Sunday, March 3, 2013

  Actual Average (KJLN) Record (KJLN)
Temperature  
Mean Temperature 40 °F 45 °F  
Max Temperature 55 °F 56 °F 81 °F (1983)
Min Temperature 24 °F 34 °F 0 °F (2002)
Degree Days  
Heating Degree Days 26 20  
Month to date heating degree days 62  
Since 1 July heating degree days 3316  
Cooling Degree Days 0 0  
Month to date cooling degree days 0  
Year to date cooling degree days 1  
Moisture  
Dew Point 27 °F    
Average Humidity 62    
Maximum Humidity 86    
Minimum Humidity 41    
Precipitation  
Precipitation 0.00 in 0.09 in 1.57 in (2004)
Month to date precipitation 0.29  
Year to date precipitation 4.64  
Sea Level Pressure  
Sea Level Pressure 29.98 in    
Wind  
Wind Speed 8 mph (SE)    
Max Wind Speed 16 mph    
Max Gust Speed 21 mph    
Visibility 10 miles    
Events      
T = Trace of Precipitation, MM = Missing Value Source: NWS Daily Summary

Daily Weather History Graph

Daily Weather History Graph

Search for Another Location

Airport:

Trip Planner

Search our weather history database for the weather conditions in past years. The results will help you decide how hot, cold, wet, or windy it might be!

Date:

Astronomy

Mar. 03, 2013 Rise Set
Actual Time 6:43 AM CST 6:12 PM CST
Civil Twilight 6:17 AM CST 6:38 PM CST
Nautical Twilight 5:47 AM CST 7:08 PM CST
Astronomical Twilight 5:17 AM CST 7:38 PM CST
Moon No Moon Rise 10:09 AM CST (3/3)
Length of Visible Light 12h 20m
Length of Day
11h 28m
Waning Gibbous, 63% of the Moon is Illuminated
Mar 3
Waning Gibbous
Mar 4
Last Quarter
Mar 11
New
Mar 19
First Quarter
Mar 27
Full

Hourly Weather History & Observations

Time (CST) Temp. Windchill Dew Point Humidity Pressure Visibility Wind Dir Wind Speed Gust Speed Precip Events Conditions
12:15 AM 24.8 °F 19.1 °F 19.4 °F 80% 30.18 in 10.0 mi SE 4.6 mph - N/A   Clear
12:35 AM 24.8 °F 17.9 °F 19.4 °F 80% 30.17 in 10.0 mi ESE 5.8 mph - N/A   Clear
12:55 AM 24.8 °F 17.9 °F 19.4 °F 80% 30.17 in 10.0 mi SE 5.8 mph - N/A   Scattered Clouds
1:15 AM 26.6 °F 20.0 °F 21.2 °F 80% 30.17 in 10.0 mi ESE 5.8 mph - N/A   Mostly Cloudy
1:35 AM 26.6 °F 22.6 °F 21.2 °F 80% 30.17 in 10.0 mi SE 3.5 mph - N/A   Overcast
1:55 AM 26.6 °F 19.1 °F 21.2 °F 80% 30.16 in 10.0 mi ESE 6.9 mph - N/A   Overcast
2:15 AM 26.6 °F 20.0 °F 21.2 °F 80% 30.16 in 10.0 mi ESE 5.8 mph - N/A   Overcast
2:35 AM 26.6 °F 21.2 °F 21.2 °F 80% 30.15 in 10.0 mi ESE 4.6 mph - N/A   Overcast
2:55 AM 26.6 °F 20.0 °F 23.0 °F 86% 30.14 in 10.0 mi SE 5.8 mph - N/A   Overcast
3:15 AM 28.4 °F 22.2 °F 23.0 °F 80% 30.13 in 10.0 mi SE 5.8 mph - N/A   Overcast
3:35 AM 28.4 °F 22.2 °F 23.0 °F 80% 30.13 in 10.0 mi SE 5.8 mph - N/A   Overcast
3:55 AM 28.4 °F 23.3 °F 23.0 °F 80% 30.12 in 10.0 mi SSE 4.6 mph - N/A   Overcast
4:15 AM 28.4 °F 21.2 °F 23.0 °F 80% 30.12 in 10.0 mi ESE 6.9 mph - N/A   Overcast
4:35 AM 28.4 °F 21.2 °F 23.0 °F 80% 30.12 in 10.0 mi SE 6.9 mph - N/A   Overcast
4:55 AM 28.4 °F 22.2 °F 23.0 °F 80% 30.11 in 10.0 mi SE 5.8 mph - N/A   Scattered Clouds
5:15 AM 28.4 °F 23.3 °F 23.0 °F 80% 30.11 in 10.0 mi SE 4.6 mph - N/A   Clear
5:35 AM 28.4 °F 22.2 °F 23.0 °F 80% 30.11 in 10.0 mi SE 5.8 mph - N/A   Clear
5:55 AM 26.6 °F 19.1 °F 23.0 °F 86% 30.10 in 10.0 mi SE 6.9 mph - N/A   Clear
6:15 AM 26.6 °F 19.1 °F 23.0 °F 86% 30.11 in 10.0 mi SE 6.9 mph - N/A   Clear
6:35 AM 26.6 °F 19.1 °F 23.0 °F 86% 30.10 in 10.0 mi SE 6.9 mph - N/A   Clear
6:55 AM 26.6 °F 19.1 °F 21.2 °F 80% 30.10 in 10.0 mi SE 6.9 mph - N/A   Mostly Cloudy
7:15 AM 28.4 °F 19.7 °F 21.2 °F 74% 30.10 in 10.0 mi ESE 9.2 mph - N/A   Scattered Clouds
7:35 AM 28.4 °F 20.4 °F 21.2 °F 74% 30.10 in 10.0 mi ESE 8.1 mph - N/A   Scattered Clouds
7:55 AM 28.4 °F 20.4 °F 23.0 °F 80% 30.09 in 10.0 mi SE 8.1 mph - N/A   Scattered Clouds
8:15 AM 30.2 °F 22.6 °F 21.2 °F 69% 30.09 in 10.0 mi SE 8.1 mph - N/A   Clear
8:35 AM 32.0 °F 24.8 °F 21.2 °F 64% 30.08 in 10.0 mi SE 8.1 mph - N/A   Clear
8:55 AM 33.8 °F 26.4 °F 23.0 °F 65% 30.08 in 10.0 mi SSE 9.2 mph - N/A   Clear
9:15 AM 35.6 °F 29.2 °F 23.0 °F 60% 30.08 in 10.0 mi SSE 8.1 mph - N/A   Clear
9:35 AM 37.4 °F 31.4 °F 23.0 °F 56% 30.07 in 10.0 mi SSE 8.1 mph - N/A   Clear
9:55 AM 37.4 °F 30.8 °F 24.8 °F 60% 30.07 in 10.0 mi South 9.2 mph - N/A   Clear
10:15 AM 41.0 °F 35.2 °F 24.8 °F 53% 30.06 in 10.0 mi SSE 9.2 mph - N/A   Clear
10:35 AM 42.8 °F 38.0 °F 26.6 °F 53% 30.05 in 10.0 mi SSE 8.1 mph - N/A   Clear
10:55 AM 42.8 °F 38.0 °F 28.4 °F 57% 30.04 in 10.0 mi SE 8.1 mph - N/A   Clear
11:15 AM 44.6 °F 39.2 °F 28.4 °F 53% 30.03 in 10.0 mi SSE 10.4 mph - N/A   Clear
11:35 AM 46.4 °F 40.4 °F 28.4 °F 50% 30.02 in 10.0 mi South 13.8 mph - N/A   Clear
11:55 AM 48.2 °F - 28.4 °F 46% 30.01 in 10.0 mi South 11.5 mph - N/A   Clear
12:15 PM 50.0 °F - 30.2 °F 47% 29.99 in 10.0 mi South 13.8 mph 20.7 mph N/A   Scattered Clouds
12:35 PM 50.0 °F - 30.2 °F 47% 29.98 in 10.0 mi SSE 9.2 mph - N/A   Mostly Cloudy
12:55 PM 51.8 °F - 30.2 °F 44% 29.96 in 10.0 mi South 11.5 mph - N/A   Scattered Clouds
1:15 PM 51.8 °F - 30.2 °F 44% 29.94 in 10.0 mi SSE 11.5 mph - N/A   Clear
1:35 PM 53.6 °F - 32.0 °F 44% 29.92 in 10.0 mi South 15.0 mph - N/A   Clear
1:55 PM 53.6 °F - 32.0 °F 44% 29.91 in 10.0 mi SE 12.7 mph 18.4 mph N/A   Clear
2:15 PM 55.4 °F - 32.0 °F 41% 29.89 in 10.0 mi South 13.8 mph 19.6 mph N/A   Clear
2:35 PM 55.4 °F - 32.0 °F 41% 29.88 in 10.0 mi SSE 15.0 mph 19.6 mph N/A   Clear
2:55 PM 55.4 °F - 32.0 °F 41% 29.88 in 10.0 mi SSE 12.7 mph - N/A   Clear
3:35 PM 55.4 °F - 32.0 °F 41% 29.87 in 10.0 mi SSE 16.1 mph 20.7 mph N/A   Clear
3:55 PM 55.4 °F - 32.0 °F 41% 29.86 in 10.0 mi South 12.7 mph - N/A   Clear
4:15 PM 55.4 °F - 32.0 °F 41% 29.86 in 10.0 mi SSE 9.2 mph - N/A   Clear
4:35 PM 53.6 °F - 32.0 °F 44% 29.86 in 10.0 mi South 11.5 mph - N/A   Clear
4:55 PM 53.6 °F - 32.0 °F 44% 29.84 in 10.0 mi South 11.5 mph - N/A   Clear
5:15 PM 53.6 °F - 32.0 °F 44% 29.84 in 10.0 mi South 10.4 mph - N/A   Clear
5:35 PM 51.8 °F - 32.0 °F 47% 29.85 in 10.0 mi South 10.4 mph - N/A   Clear
5:55 PM 51.8 °F - 32.0 °F 47% 29.84 in 10.0 mi SSE 10.4 mph - N/A   Clear
6:15 PM 50.0 °F - 32.0 °F 50% 29.84 in 10.0 mi SSE 9.2 mph - N/A   Clear
6:35 PM 50.0 °F - 32.0 °F 50% 29.84 in 10.0 mi SE 10.4 mph - N/A   Clear
6:55 PM 48.2 °F - 32.0 °F 54% 29.84 in 10.0 mi SSE 9.2 mph - N/A   Clear
7:15 PM 46.4 °F 41.9 °F 32.0 °F 57% 29.86 in 10.0 mi SSE 9.2 mph - N/A   Clear
7:35 PM 48.2 °F - 30.2 °F 50% 29.85 in 10.0 mi SSE 11.5 mph - N/A   Clear
7:55 PM 46.4 °F 41.5 °F 30.2 °F 53% 29.84 in 10.0 mi SE 10.4 mph - N/A   Clear
8:15 PM 46.4 °F 41.1 °F 30.2 °F 53% 29.83 in 10.0 mi SE 11.5 mph - N/A   Clear
8:35 PM 44.6 °F 39.2 °F 30.2 °F 57% 29.84 in 10.0 mi SE 10.4 mph - N/A   Clear
8:55 PM 44.6 °F 38.4 °F 30.2 °F 57% 29.83 in 10.0 mi SE 12.7 mph 17.3 mph N/A   Clear
9:15 PM 44.6 °F 38.1 °F 30.2 °F 57% 29.82 in 10.0 mi SE 13.8 mph - N/A   Clear
9:35 PM 42.8 °F 36.6 °F 30.2 °F 61% 29.82 in 10.0 mi SE 11.5 mph - N/A   Clear
9:55 PM 42.8 °F 36.2 °F 30.2 °F 61% 29.82 in 10.0 mi SE 12.7 mph - N/A   Clear
10:15 PM 42.8 °F 35.1 °F 30.2 °F 61% 29.81 in 10.0 mi SE 16.1 mph 20.7 mph N/A   Clear
10:35 PM 42.8 °F 35.8 °F 30.2 °F 61% 29.81 in 10.0 mi SE 13.8 mph - N/A   Clear
10:55 PM 42.8 °F 36.2 °F 30.2 °F 61% 29.80 in 10.0 mi SE 12.7 mph - N/A   Clear
11:15 PM 42.8 °F 35.4 °F 30.2 °F 61% 29.79 in 10.0 mi SE 15.0 mph 20.7 mph N/A   Clear
11:35 PM 42.8 °F 35.8 °F 30.2 °F 61% 29.79 in 10.0 mi SE 13.8 mph - N/A   Clear
11:55 PM 42.8 °F 35.1 °F 30.2 °F 61% 29.77 in 10.0 mi SE 16.1 mph - N/A   Clear